Year,Month,Day,Hour,Minute,Value (Times are PST for temperature in C)
2014,09,08,10,14,14.80
2014,09,08,10,15,14.80
2014,09,08,10,16,14.80
2014,09,08,10,17,14.80
2014,09,08,10,18,14.80
2014,09,08,10,19,14.80
2014,09,08,10,20,14.80
2014,09,08,10,21,14.80
2014,09,08,10,22,14.80
2014,09,08,10,23,14.80
2014,09,08,10,24,14.80
2014,09,08,10,25,14.80
2014,09,08,10,26,14.80
2014,09,08,10,27,14.90
2014,09,08,10,28,15.00
2014,09,08,10,29,15.00
2014,09,08,10,30,15.10
2014,09,08,10,31,15.20
2014,09,08,10,32,15.30
2014,09,08,10,33,15.30
2014,09,08,10,34,15.30
2014,09,08,10,35,15.30
2014,09,08,10,36,15.40
2014,09,08,10,37,15.40
2014,09,08,10,38,15.50
2014,09,08,10,39,15.50
2014,09,08,10,40,15.50
2014,09,08,10,41,15.50
2014,09,08,10,42,15.50
2014,09,08,10,43,15.50
2014,09,08,10,44,15.50
2014,09,08,10,45,15.50
2014,09,08,10,46,15.50
2014,09,08,10,47,15.50
2014,09,08,10,48,15.50
2014,09,08,10,49,15.60
2014,09,08,10,50,15.60
2014,09,08,10,51,15.70
2014,09,08,10,52,15.80
2014,09,08,10,53,15.80
2014,09,08,10,54,15.80
2014,09,08,10,55,15.90
2014,09,08,10,56,16.10
2014,09,08,10,57,16.20
2014,09,08,10,58,16.30
2014,09,08,10,59,16.40
2014,09,08,11,00,16.40
2014,09,08,11,01,16.70
2014,09,08,11,02,16.70
2014,09,08,11,03,16.90
2014,09,08,11,04,17.00
2014,09,08,11,05,17.10
2014,09,08,11,06,17.30
2014,09,08,11,07,17.30
2014,09,08,11,08,17.30
2014,09,08,11,09,17.40
2014,09,08,11,10,17.50
2014,09,08,11,11,17.60
2014,09,08,11,12,17.60
2014,09,08,11,13,17.60
2014,09,08,11,14,17.60
2014,09,08,11,15,17.60
2014,09,08,11,16,17.70
2014,09,08,11,17,17.70
2014,09,08,11,18,17.70
2014,09,08,11,19,17.80
2014,09,08,11,20,17.80
2014,09,08,11,21,17.80
2014,09,08,11,22,17.80
2014,09,08,11,23,17.80
2014,09,08,11,24,17.70
2014,09,08,11,25,17.70
2014,09,08,11,26,17.70
2014,09,08,11,27,17.70
2014,09,08,11,28,17.70
2014,09,08,11,29,17.80
2014,09,08,11,30,17.90
2014,09,08,11,31,17.90
2014,09,08,11,32,17.90
2014,09,08,11,33,17.90
2014,09,08,11,34,17.90
2014,09,08,11,35,17.90
2014,09,08,11,36,17.90
2014,09,08,11,37,17.90
2014,09,08,11,38,18.10
2014,09,08,11,39,18.20
2014,09,08,11,40,18.20
2014,09,08,11,41,18.30
2014,09,08,11,42,18.30
2014,09,08,11,43,18.30
2014,09,08,11,44,18.30
2014,09,08,11,45,18.20
2014,09,08,11,46,18.20
2014,09,08,11,47,18.20
2014,09,08,11,48,18.20
2014,09,08,11,49,18.20
2014,09,08,11,50,18.10
2014,09,08,11,51,18.10
2014,09,08,11,52,18.10
2014,09,08,11,53,17.90
2014,09,08,11,54,17.90
2014,09,08,11,55,17.90
2014,09,08,11,56,17.90
2014,09,08,11,57,17.90
2014,09,08,11,58,17.90
2014,09,08,11,59,17.90
2014,09,08,12,00,17.90
2014,09,08,12,01,18.10
2014,09,08,12,02,18.10
2014,09,08,12,03,18.10
2014,09,08,12,04,18.20
2014,09,08,12,05,18.20
2014,09,08,12,06,18.30
2014,09,08,12,07,18.30
2014,09,08,12,08,18.40
2014,09,08,12,09,18.40
2014,09,08,12,10,18.50
2014,09,08,12,11,18.60
2014,09,08,12,12,18.70
2014,09,08,12,13,18.80
2014,09,08,12,14,18.90
2014,09,08,12,15,19.10
2014,09,08,12,16,19.10
2014,09,08,12,17,19.20
2014,09,08,12,18,19.20
2014,09,08,12,19,19.30
2014,09,08,12,20,19.40
2014,09,08,12,21,19.50
2014,09,08,12,22,19.50
2014,09,08,12,23,19.60
2014,09,08,12,24,19.80
2014,09,08,12,25,19.80
2014,09,08,12,26,19.80
2014,09,08,12,27,19.80
2014,09,08,12,28,19.90
2014,09,08,12,29,19.90
2014,09,08,12,30,19.90
2014,09,08,12,31,19.90
2014,09,08,12,32,19.90
2014,09,08,12,33,20.10
2014,09,08,12,34,19.90
2014,09,08,12,35,19.90
2014,09,08,12,36,19.90
2014,09,08,12,37,19.90
2014,09,08,12,38,19.90
2014,09,08,12,39,19.90
2014,09,08,12,40,19.90
2014,09,08,12,41,19.90
2014,09,08,12,42,19.90
2014,09,08,12,43,19.90
2014,09,08,12,44,19.90
2014,09,08,12,45,19.90
2014,09,08,12,46,19.90
2014,09,08,12,47,20.20
2014,09,08,12,48,20.20
2014,09,08,12,49,20.20
2014,09,08,12,50,20.30
2014,09,08,12,51,20.50
2014,09,08,12,52,20.50
2014,09,08,12,53,20.30
2014,09,08,12,54,20.20
2014,09,08,12,55,20.20
2014,09,08,12,56,20.20
2014,09,08,12,57,20.20
2014,09,08,12,58,20.20
2014,09,08,12,59,20.30
2014,09,08,13,00,20.30
2014,09,08,13,01,20.30
2014,09,08,13,02,20.30
2014,09,08,13,03,20.40
2014,09,08,13,04,20.50
2014,09,08,13,05,20.60
2014,09,08,13,06,20.60
2014,09,08,13,07,20.60
2014,09,08,13,08,20.60
2014,09,08,13,09,20.60
2014,09,08,13,10,20.50
2014,09,08,13,11,20.40
2014,09,08,13,12,20.40
2014,09,08,13,13,20.40
2014,09,08,13,14,20.40
2014,09,08,13,15,20.30
2014,09,08,13,16,20.30
2014,09,08,13,17,20.40
2014,09,08,13,18,20.60
2014,09,08,13,19,20.60
2014,09,08,13,20,20.60
2014,09,08,13,21,20.70
2014,09,08,13,22,20.80
2014,09,08,13,23,21.00
2014,09,08,13,24,21.10
2014,09,08,13,25,21.00
2014,09,08,13,26,21.10
2014,09,08,13,27,21.20
2014,09,08,13,28,21.30
2014,09,08,13,29,21.30
2014,09,08,13,30,21.30
2014,09,08,13,31,21.30
2014,09,08,13,32,21.30
2014,09,08,13,33,21.30
2014,09,08,13,34,21.30
2014,09,08,13,35,21.30
2014,09,08,13,36,21.20
2014,09,08,13,37,21.00
2014,09,08,13,38,20.90
2014,09,08,13,39,20.60
2014,09,08,13,40,20.60
2014,09,08,13,41,20.50
2014,09,08,13,42,20.30
2014,09,08,13,43,20.30
2014,09,08,13,44,20.30
2014,09,08,13,45,20.20
2014,09,08,13,46,20.20
2014,09,08,13,47,20.20
2014,09,08,13,48,20.30
2014,09,08,13,49,20.30
2014,09,08,13,50,20.40
2014,09,08,13,51,20.60
2014,09,08,13,52,20.70
2014,09,08,13,53,20.70
2014,09,08,13,54,20.90
2014,09,08,13,55,21.00
2014,09,08,13,56,21.20
2014,09,08,13,57,21.30
2014,09,08,13,58,21.30
2014,09,08,13,59,21.30
2014,09,08,14,00,21.30
2014,09,08,14,01,21.30
2014,09,08,14,02,21.20
2014,09,08,14,03,21.20
2014,09,08,14,04,21.20
2014,09,08,14,05,21.20
2014,09,08,14,06,21.20
2014,09,08,14,07,21.30
2014,09,08,14,08,21.30
2014,09,08,14,09,21.40
2014,09,08,14,10,21.40
2014,09,08,14,11,21.70
2014,09,08,14,12,21.70
2014,09,08,14,13,21.90
2014,09,08,14,14,22.00
2014,09,08,14,15,22.10
2014,09,08,14,16,22.30
2014,09,08,14,17,22.40
2014,09,08,14,18,22.50
2014,09,08,14,19,22.50
2014,09,08,14,20,22.60
2014,09,08,14,21,22.50
2014,09,08,14,22,22.30
2014,09,08,14,23,22.20
2014,09,08,14,24,22.10
2014,09,08,14,25,22.10
2014,09,08,14,26,22.00
2014,09,08,14,27,22.00
2014,09,08,14,28,21.90
2014,09,08,14,29,21.90
2014,09,08,14,30,21.90
2014,09,08,14,31,21.80
2014,09,08,14,32,21.70
2014,09,08,14,33,21.60
2014,09,08,14,34,21.40
2014,09,08,14,35,21.30
2014,09,08,14,36,21.30
2014,09,08,14,37,21.30
2014,09,08,14,38,21.30
2014,09,08,14,39,21.30
2014,09,08,14,40,21.30
2014,09,08,14,41,21.10
2014,09,08,14,42,21.10
2014,09,08,14,43,21.20
2014,09,08,14,44,21.20
2014,09,08,14,45,21.20
2014,09,08,14,46,21.30
2014,09,08,14,47,21.30
2014,09,08,14,48,21.30
2014,09,08,14,49,21.30
2014,09,08,14,50,21.20
2014,09,08,14,51,21.20
2014,09,08,14,52,21.20
2014,09,08,14,53,21.20
2014,09,08,14,54,21.30
2014,09,08,14,55,21.30
2014,09,08,14,56,21.40
2014,09,08,14,57,21.30
2014,09,08,14,58,21.30
2014,09,08,14,59,21.30
2014,09,08,15,00,21.30
2014,09,08,15,01,21.30
2014,09,08,15,02,21.30
2014,09,08,15,03,21.30
2014,09,08,15,04,21.30
2014,09,08,15,05,21.10
2014,09,08,15,06,21.00
2014,09,08,15,07,21.00
2014,09,08,15,08,21.00
2014,09,08,15,09,21.10
2014,09,08,15,10,21.10
2014,09,08,15,11,21.20
2014,09,08,15,12,21.20
2014,09,08,15,13,21.20
2014,09,08,15,14,21.30
2014,09,08,15,15,21.30
2014,09,08,15,16,21.30
2014,09,08,15,17,21.30
2014,09,08,15,18,21.30
2014,09,08,15,19,21.30
2014,09,08,15,20,21.20
2014,09,08,15,21,21.20
2014,09,08,15,22,21.20
2014,09,08,15,23,21.20
2014,09,08,15,24,21.30
2014,09,08,15,25,21.30
2014,09,08,15,26,21.30
2014,09,08,15,27,21.30
2014,09,08,15,28,21.30
2014,09,08,15,29,21.30
2014,09,08,15,30,21.30
2014,09,08,15,31,21.30
2014,09,08,15,32,21.30
2014,09,08,15,33,21.30
2014,09,08,15,34,21.30
2014,09,08,15,35,21.30
2014,09,08,15,36,21.30
2014,09,08,15,37,21.20
2014,09,08,15,38,21.20
2014,09,08,15,39,21.30
2014,09,08,15,40,21.30
2014,09,08,15,41,21.20
2014,09,08,15,42,21.20
2014,09,08,15,43,21.30
2014,09,08,15,44,21.20
2014,09,08,15,45,21.20
2014,09,08,15,46,21.10
2014,09,08,15,47,21.10
2014,09,08,15,48,21.10
2014,09,08,15,49,21.20
2014,09,08,15,50,21.20
2014,09,08,15,51,21.10
2014,09,08,15,52,21.10
2014,09,08,15,53,21.10
2014,09,08,15,54,21.00
2014,09,08,15,55,21.00
2014,09,08,15,56,21.00
2014,09,08,15,57,21.00
2014,09,08,15,58,20.90
2014,09,08,15,59,20.90
2014,09,08,16,00,20.90
2014,09,08,16,01,20.90
2014,09,08,16,02,20.90
2014,09,08,16,03,20.90
2014,09,08,16,04,20.90
2014,09,08,16,05,20.90
2014,09,08,16,06,20.90
2014,09,08,16,07,21.00
2014,09,08,16,08,21.00
2014,09,08,16,09,20.90
2014,09,08,16,10,20.90
2014,09,08,16,11,20.90
2014,09,08,16,12,20.80
2014,09,08,16,13,20.70
2014,09,08,16,14,20.60
2014,09,08,16,15,20.60
2014,09,08,16,16,20.60
2014,09,08,16,17,20.60
2014,09,08,16,18,20.70
2014,09,08,16,19,20.70
2014,09,08,16,20,20.70
2014,09,08,16,21,20.70
2014,09,08,16,22,20.70
2014,09,08,16,23,20.60
2014,09,08,16,24,20.70
2014,09,08,16,25,20.70
2014,09,08,16,26,20.70
2014,09,08,16,27,20.70
2014,09,08,16,28,20.60
2014,09,08,16,29,20.70
2014,09,08,16,30,20.70
2014,09,08,16,31,20.60
2014,09,08,16,32,20.70
2014,09,08,16,33,20.70
2014,09,08,16,34,20.70
2014,09,08,16,35,20.80
2014,09,08,16,36,20.80
2014,09,08,16,37,20.90
2014,09,08,16,38,20.90
2014,09,08,16,39,20.90
2014,09,08,16,40,21.00
2014,09,08,16,41,20.90
2014,09,08,16,42,21.00
2014,09,08,16,43,21.10
2014,09,08,16,44,21.10
2014,09,08,16,45,21.20
2014,09,08,16,46,21.20
2014,09,08,16,47,21.20
2014,09,08,16,48,21.20
2014,09,08,16,49,21.20
2014,09,08,16,50,21.20
2014,09,08,16,51,21.20
2014,09,08,16,52,21.20
2014,09,08,16,53,21.10
2014,09,08,16,54,21.10
2014,09,08,16,55,21.10
2014,09,08,16,56,21.10
2014,09,08,16,57,21.00
2014,09,08,16,58,20.90
2014,09,08,16,59,20.90
2014,09,08,17,00,20.80
2014,09,08,17,01,20.80
2014,09,08,17,02,20.80
2014,09,08,17,03,20.80
2014,09,08,17,04,20.90
2014,09,08,17,05,20.90
2014,09,08,17,06,20.80
2014,09,08,17,07,20.80
2014,09,08,17,08,20.70
2014,09,08,17,09,20.70
2014,09,08,17,10,20.60
2014,09,08,17,11,20.50
2014,09,08,17,12,20.50
2014,09,08,17,13,20.50
2014,09,08,17,14,20.50
2014,09,08,17,15,20.50
2014,09,08,17,16,20.40
2014,09,08,17,17,20.20
2014,09,08,17,18,20.20
2014,09,08,17,19,20.10
2014,09,08,17,20,19.90
2014,09,08,17,21,19.90
2014,09,08,17,22,19.90
2014,09,08,17,23,19.90
2014,09,08,17,24,20.10
2014,09,08,17,25,20.10
2014,09,08,17,26,20.20
2014,09,08,17,27,20.20
2014,09,08,17,28,20.20
2014,09,08,17,29,20.20
2014,09,08,17,30,20.20
2014,09,08,17,31,20.20
2014,09,08,17,32,20.10
2014,09,08,17,33,20.10
2014,09,08,17,34,20.10
2014,09,08,17,35,20.10
2014,09,08,17,36,20.10
2014,09,08,17,37,19.90
2014,09,08,17,38,19.80
2014,09,08,17,39,19.80
2014,09,08,17,40,19.70
2014,09,08,17,41,19.70
2014,09,08,17,42,19.70
2014,09,08,17,43,19.60
2014,09,08,17,44,19.60
2014,09,08,17,45,19.60
2014,09,08,17,46,19.60
2014,09,08,17,47,19.50
2014,09,08,17,48,19.50
2014,09,08,17,49,19.50
2014,09,08,17,50,19.50
2014,09,08,17,51,19.50
2014,09,08,17,52,19.50
2014,09,08,17,53,19.50
2014,09,08,17,54,19.50
2014,09,08,17,55,19.50
2014,09,08,17,56,19.50
2014,09,08,17,57,19.50
2014,09,08,17,58,19.50
2014,09,08,17,59,19.50
2014,09,08,18,00,19.50
2014,09,08,18,01,19.50
2014,09,08,18,02,19.40
2014,09,08,18,03,19.30
2014,09,08,18,04,19.30
2014,09,08,18,05,19.30
2014,09,08,18,06,19.20
2014,09,08,18,07,19.20
2014,09,08,18,08,19.30
2014,09,08,18,09,19.30
2014,09,08,18,10,19.20
2014,09,08,18,11,19.20
2014,09,08,18,12,19.30
2014,09,08,18,13,19.20
2014,09,08,18,14,19.20
2014,09,08,18,15,19.30
2014,09,08,18,16,19.30
2014,09,08,18,17,19.30
2014,09,08,18,18,19.40
2014,09,08,18,19,19.40
2014,09,08,18,20,19.40
2014,09,08,18,21,19.40
2014,09,08,18,22,19.40
2014,09,08,18,23,19.40
2014,09,08,18,24,19.40
2014,09,08,18,25,19.40
2014,09,08,18,26,19.40
2014,09,08,18,27,19.40
2014,09,08,18,28,19.40
2014,09,08,18,29,19.40
2014,09,08,18,30,19.40
2014,09,08,18,31,19.30
2014,09,08,18,32,19.30
2014,09,08,18,33,19.30
2014,09,08,18,34,19.30
2014,09,08,18,35,19.20
2014,09,08,18,36,19.10
2014,09,08,18,37,19.10
2014,09,08,18,38,19.10
2014,09,08,18,39,19.10
2014,09,08,18,40,18.90
2014,09,08,18,41,18.90
2014,09,08,18,42,18.90
2014,09,08,18,43,18.90
2014,09,08,18,44,18.90
2014,09,08,18,45,18.80
2014,09,08,18,46,18.70
2014,09,08,18,47,18.70
2014,09,08,18,48,18.70
2014,09,08,18,49,18.60
2014,09,08,18,50,18.60
2014,09,08,18,51,18.60
2014,09,08,18,52,18.60
2014,09,08,18,53,18.60
2014,09,08,18,54,18.60
2014,09,08,18,55,18.60
2014,09,08,18,56,18.60
2014,09,08,18,57,18.60
2014,09,08,18,58,18.60
2014,09,08,18,59,18.60
2014,09,08,19,00,18.60
2014,09,08,19,01,18.60
2014,09,08,19,02,18.60
2014,09,08,19,03,18.60
